EW0482 Weather Reports


Display with metric or nautical units.
time (UTC)temp
F
wind
direction
speed
MPH
gust
MPH
rain 1hr
in
rain 24hr
in
rain mn
in
humidity
%
barometer
mb
20260509203023 72 215 0.0 5.0 0.00 0.00 0.00 71 1002.0
20260509201523 72 211 0.0 3.0 0.00 0.00 0.00 71 1002.1
20260509200023 72 192 0.0 1.0 0.00 0.00 0.00 70 1002.2
20260509194528 72 257 1.0 6.0 0.00 0.00 0.00 71 1002.2
20260509193021 72 197 0.0 5.0 0.00 0.00 0.00 71 1002.4
20260509191520 72 205 0.0 3.0 0.00 0.00 0.00 71 1002.5
20260509190021 71 259 0.0 7.0 0.00 0.00 0.00 72 1002.7
20260509184518 72 252 0.0 3.0 0.00 0.00 0.00 71 1002.8
20260509183023 71 254 1.0 5.0 0.00 0.00 0.00 72 1002.8
20260509181515 71 255 0.0 3.0 0.00 0.00 0.00 71 1002.9
20260509180012 70 248 0.0 6.0 0.00 0.00 0.00 69 1002.9
20260509174510 69 253 0.0 3.0 0.00 0.00 0.00 71 1003.0
20260509173007 68 240 0.0 1.0 0.00 0.00 0.00 66 1002.9
20260509171504 67 141 0.0 1.0 0.00 0.00 0.00 63 1002.9
20260509170100 66 142 0.0 0.0 0.00 0.00 0.00 58 1002.8
20260509164602 65 142 0.0 0.0 0.00 0.00 0.00 50 1002.8
20260509163059 64 142 0.0 0.0 0.00 0.00 0.00 46 1002.8
20260509161552 64 141 0.0 0.0 0.00 0.00 0.00 40 1002.8
20260509160049 63 142 0.0 0.0 0.00 0.00 0.00 35 1002.9
20260509154553 63 142 0.0 0.0 0.00 0.00 0.00 30 1003.0
20260509153044 63 141 0.0 2.0 0.00 0.00 0.00 24 1003.0
20260509151545 62 244 0.0 0.0 0.00 0.00 0.00 19 1002.9
20260509150042 62 244 0.0 0.0 0.00 0.00 0.00 16 1002.9
20260509144542 62 244 0.0 0.0 0.00 0.00 0.00 13 1002.9
20260509143042 62 244 0.0 0.0 0.00 0.00 0.00 10 1002.8
20260509141539 62 244 0.0 0.0 0.00 0.00 0.00 9 1002.8
20260509140041 61 244 0.0 0.0 0.00 0.00 0.00 10 1002.7
20260509134538 61 244 0.0 0.0 0.00 0.00 0.00 11 1002.7
20260509133037 61 244 0.0 0.0 0.00 0.00 0.00 12 1002.5
20260509131536 61 244 0.0 0.0 0.00 0.00 0.00 13 1002.5
20260509130036 61 244 0.0 0.0 0.00 0.00 0.00 15 1002.4
20260509124535 61 244 0.0 0.0 0.00 0.00 0.00 16 1002.3
20260509123035 61 244 0.0 0.0 0.00 0.00 0.00 18 1002.3
20260509121537 61 244 0.0 0.0 0.00 0.00 0.00 19 1002.2
20260509120032 61 246 0.0 0.0 0.00 0.00 0.00 17 1002.2
20260509114533 61 246 0.0 0.0 0.00 0.00 0.00 17 1002.3
20260509113033 61 246 0.0 0.0 0.00 0.00 0.00 16 1002.3
20260509111531 61 246 0.0 0.0 0.00 0.00 0.00 15 1002.2
20260509110034 61 246 0.0 0.0 0.00 0.00 0.00 14 1002.3
20260509104537 61 246 0.0 0.0 0.00 0.00 0.00 14 1002.3
20260509103027 61 248 0.0 0.0 0.00 0.00 0.00 11 1002.4
20260509101532 61 248 0.0 0.0 0.00 0.00 0.00 12 1002.4
20260509100025 61 248 0.0 0.0 0.00 0.00 0.00 13 1002.5
20260509094523 61 248 0.0 0.0 0.00 0.00 0.00 13 1002.7
20260509093033 61 250 0.0 0.0 0.00 0.00 0.00 12 1002.7
20260509091521 61 249 0.0 0.0 0.00 0.00 0.00 13 1002.7
20260509090022 61 249 0.0 0.0 0.00 0.00 0.00 15 1002.8
20260509084525 60 250 0.0 0.0 0.00 0.00 0.00 16 1002.9
20260509083021 60 250 0.0 0.0 0.00 0.00 0.00 17 1003.0
20260509081529 60 250 0.0 0.0 0.00 0.00 0.00 19 1003.1
20260509080027 60 250 0.0 0.0 0.00 0.00 0.00 20 1003.3
20260509074514 60 250 0.0 0.0 0.00 0.00 0.00 20 1003.4
20260509073013 60 250 0.0 0.0 0.00 0.00 0.00 20 1003.4
20260509071511 60 250 0.0 0.0 0.00 0.00 0.00 24 1003.4
20260509070009 61 250 0.0 0.0 0.00 0.00 0.00 14 1003.5
20260509064508 60 250 0.0 0.0 0.00 0.00 0.00 20 1003.6
20260509063100 60 250 0.0 0.0 0.00 0.00 0.00 16 1003.6
20260509061556 60 250 0.0 0.0 0.00 0.00 0.00 22 1003.5
20260509060053 60 250 0.0 1.0 0.00 0.00 0.00 29 1003.7
20260509054552 61 249 0.0 0.0 0.00 0.00 0.00 24 1003.7
20260509053046 61 249 0.0 0.0 0.00 0.00 0.00 27 1003.7
20260509051542 61 249 0.0 0.0 0.00 0.00 0.00 29 1003.6
20260509050040 61 250 0.0 0.0 0.00 0.00 0.00 24 1003.6
20260509044532 60 249 0.0 0.0 0.00 0.00 0.00 24 1003.5
20260509043027 60 250 0.0 0.0 0.00 0.00 0.00 24 1003.4
20260509041523 60 250 0.0 0.0 0.00 0.00 0.00 24 1003.3
20260509040018 60 250 0.0 2.0 0.00 0.00 0.00 28 1003.3
20260509034514 61 247 0.0 0.0 0.00 0.00 0.00 31 1003.2
20260509033009 61 247 0.0 3.0 0.00 0.00 0.00 34 1003.0
20260509031505 61 248 0.0 0.0 0.00 0.00 0.00 38 1002.8
20260509030101 61 248 0.0 1.0 0.00 0.00 0.00 40 1002.6
20260509024556 61 249 0.0 2.0 0.00 0.00 0.00 42 1002.6
20260509023053 62 248 0.0 3.0 0.00 0.00 0.00 46 1002.5
20260509021548 62 248 0.0 4.0 0.00 0.00 0.00 48 1002.5
20260509020042 62 245 0.0 2.0 0.00 0.00 0.00 49 1002.4
20260509014544 62 250 0.0 5.0 0.00 0.00 0.00 57 1002.3
20260509013041 63 261 0.0 5.0 0.00 0.00 0.00 62 1002.4
20260509011533 64 251 0.0 3.0 0.00 0.00 0.00 63 1002.4
20260509010026 64 246 0.0 6.0 0.00 0.00 0.00 67 1002.3
20260509004524 65 258 0.0 3.0 0.00 0.00 0.00 69 1002.4
20260509003028 65 247 0.0 8.0 0.00 0.00 0.00 71 1002.4
20260509001514 66 242 1.0 7.0 0.00 0.00 0.00 72 1002.4
20260509000009 67 284 2.0 7.0 0.00 0.00 0.00 73 1002.4
20260508234504 69 262 2.0 9.0 0.00 0.00 0.00 73 1002.4
20260508233134 70 243 0.0 5.0 0.00 0.00 0.00 72 1002.4
20260508231558 70 237 1.0 6.0 0.00 0.00 0.00 72 1002.6
20260508230056 70 246 1.0 7.0 0.00 0.00 0.00 72 1002.7
20260508224551 70 248 2.0 7.0 0.00 0.00 0.00 72 1002.9
20260508223043 70 246 0.0 6.0 0.00 0.00 0.00 72 1003.1
20260508221538 70 251 0.0 5.0 0.00 0.00 0.00 71 1003.2
20260508220035 70 223 0.0 8.0 0.00 0.00 0.00 72 1003.4
20260508214530 71 259 0.0 6.0 0.00 0.00 0.00 71 1003.6
20260508213026 71 227 0.0 6.0 0.00 0.00 0.00 72 1003.8
20260508211529 70 251 3.0 7.0 0.00 0.00 0.00 72 1003.8
20260508210015 70 250 2.0 7.0 0.00 0.00 0.00 72 1004.0
20260508204512 70 252 0.0 7.0 0.00 0.00 0.00 72 1004.1